Time,TemperatureF,DewpointF,PressureIn,WindDirection,WindDirectionDegrees,WindSpeedMPH,WindSpeedGustMPH,Humidity,HourlyPrecipIn,Conditions,Clouds,dailyrainin,SoftwareType,DateUTC
2013-04-26 00:01:00,36.7,31.1,30.30,SW,221,2.0,4.0,80,0.00,,,0.00,meteohub,2013-04-26 05:01:00,
2013-04-26 00:07:00,36.9,31.6,30.30,SW,221,3.0,3.0,81,0.00,,,0.00,meteohub,2013-04-26 05:07:00,
2013-04-26 00:12:00,36.9,31.3,30.30,SW,221,3.0,4.0,80,0.00,,,0.00,meteohub,2013-04-26 05:12:00,
2013-04-26 00:17:00,37.0,31.8,30.30,SW,221,3.0,4.0,81,0.00,,,0.00,meteohub,2013-04-26 05:17:00,
2013-04-26 00:22:00,36.7,31.5,30.30,SW,221,2.0,3.0,81,0.00,,,0.00,meteohub,2013-04-26 05:22:00,
2013-04-26 00:27:00,36.3,31.3,30.30,SW,221,2.0,3.0,82,0.00,,,0.00,meteohub,2013-04-26 05:27:00,
2013-04-26 00:32:00,36.7,32.0,30.30,SW,221,2.0,4.0,83,0.00,,,0.00,meteohub,2013-04-26 05:32:00,
2013-04-26 00:37:00,36.5,31.8,30.30,SW,221,2.0,4.0,83,0.00,,,0.00,meteohub,2013-04-26 05:37:00,
2013-04-26 00:42:00,36.9,32.5,30.30,SW,221,2.0,4.0,84,0.00,,,0.00,meteohub,2013-04-26 05:42:00,
2013-04-26 00:47:00,37.4,33.1,30.30,SW,221,4.0,4.0,84,0.00,,,0.00,meteohub,2013-04-26 05:47:00,
2013-04-26 00:52:00,37.4,32.7,30.30,SW,221,3.0,4.0,83,0.00,,,0.00,meteohub,2013-04-26 05:52:00,
2013-04-26 00:57:00,37.4,32.7,30.30,SW,221,3.0,4.0,83,0.00,,,0.00,meteohub,2013-04-26 05:57:00,
2013-04-26 01:02:00,37.2,32.5,30.30,SW,221,2.0,4.0,83,0.00,,,0.00,meteohub,2013-04-26 06:02:00,
2013-04-26 01:07:00,37.8,33.1,30.29,SSW,210,4.0,4.0,83,0.00,,,0.00,meteohub,2013-04-26 06:07:00,
2013-04-26 01:12:00,38.1,33.1,30.29,South,178,4.0,5.0,82,0.00,,,0.00,meteohub,2013-04-26 06:12:00,
2013-04-26 01:17:00,38.5,33.1,30.29,South,171,4.0,9.0,81,0.00,,,0.00,meteohub,2013-04-26 06:17:00,
2013-04-26 01:22:00,38.3,32.9,30.28,South,171,3.0,9.0,81,0.00,,,0.00,meteohub,2013-04-26 06:22:00,
2013-04-26 01:27:00,38.5,32.9,30.28,South,171,2.0,9.0,80,0.00,,,0.00,meteohub,2013-04-26 06:27:00,
2013-04-26 01:32:00,38.7,33.1,30.28,South,171,3.0,6.0,80,0.00,,,0.00,meteohub,2013-04-26 06:32:00,
2013-04-26 01:37:00,38.7,33.1,30.28,South,171,4.0,6.0,80,0.00,,,0.00,meteohub,2013-04-26 06:37:00,
2013-04-26 01:42:00,38.8,32.9,30.27,South,171,5.0,6.0,79,0.00,,,0.00,meteohub,2013-04-26 06:42:00,
2013-04-26 01:47:00,39.0,32.7,30.27,South,169,3.0,6.0,78,0.00,,,0.00,meteohub,2013-04-26 06:47:00,
2013-04-26 01:52:00,39.4,33.1,30.27,South,169,3.0,6.0,78,0.00,,,0.00,meteohub,2013-04-26 06:52:00,
2013-04-26 01:57:00,39.6,32.9,30.28,South,178,7.0,7.0,77,0.00,,,0.00,meteohub,2013-04-26 06:57:00,
2013-04-26 02:02:00,39.6,32.9,30.28,South,178,4.0,9.0,77,0.00,,,0.00,meteohub,2013-04-26 07:02:00,
2013-04-26 02:07:00,39.6,32.9,30.28,South,180,7.0,9.0,77,0.00,,,0.00,meteohub,2013-04-26 07:07:00,
2013-04-26 02:12:00,39.7,33.1,30.28,South,183,7.0,9.0,77,0.00,,,0.00,meteohub,2013-04-26 07:12:00,
2013-04-26 02:17:00,39.9,32.9,30.27,South,177,7.0,8.0,76,0.00,,,0.00,meteohub,2013-04-26 07:17:00,
2013-04-26 02:22:00,39.9,32.9,30.28,South,175,4.0,9.0,76,0.00,,,0.00,meteohub,2013-04-26 07:22:00,
2013-04-26 02:27:00,39.9,33.3,30.27,South,171,3.0,9.0,77,0.00,,,0.00,meteohub,2013-04-26 07:27:00,
2013-04-26 02:32:00,40.3,33.3,30.27,South,182,9.0,9.0,76,0.00,,,0.00,meteohub,2013-04-26 07:32:00,
2013-04-26 02:37:00,40.3,33.3,30.27,South,169,4.0,10.0,76,0.00,,,0.00,meteohub,2013-04-26 07:37:00,
2013-04-26 02:42:00,40.3,33.1,30.27,South,175,4.0,10.0,75,0.00,,,0.00,meteohub,2013-04-26 07:42:00,
2013-04-26 02:47:00,40.3,33.1,30.27,South,169,4.0,10.0,75,0.00,,,0.00,meteohub,2013-04-26 07:47:00,
2013-04-26 02:52:00,40.3,32.7,30.27,South,189,9.0,9.0,74,0.00,,,0.00,meteohub,2013-04-26 07:52:00,
2013-04-26 02:57:00,40.3,32.7,30.27,South,179,7.0,10.0,74,0.00,,,0.00,meteohub,2013-04-26 07:57:00,
2013-04-26 03:02:00,40.3,32.7,30.27,South,178,6.0,10.0,74,0.00,,,0.00,meteohub,2013-04-26 08:02:00,
2013-04-26 03:07:00,40.1,32.5,30.27,South,186,8.0,10.0,74,0.00,,,0.00,meteohub,2013-04-26 08:07:00,
2013-04-26 03:12:00,40.3,32.7,30.27,South,185,9.0,10.0,74,0.00,,,0.00,meteohub,2013-04-26 08:12:00,
2013-04-26 03:17:00,40.5,32.5,30.27,South,175,7.0,12.0,73,0.00,,,0.00,meteohub,2013-04-26 08:17:00,
2013-04-26 03:22:00,40.5,32.5,30.27,South,176,6.0,12.0,73,0.00,,,0.00,meteohub,2013-04-26 08:22:00,
2013-04-26 03:27:00,40.3,32.4,30.28,South,172,7.0,12.0,73,0.00,,,0.00,meteohub,2013-04-26 08:27:00,
2013-04-26 03:32:00,40.3,32.7,30.28,South,170,8.0,12.0,74,0.00,,,0.00,meteohub,2013-04-26 08:32:00,
2013-04-26 03:37:00,40.1,32.5,30.28,South,181,5.0,10.0,74,0.00,,,0.00,meteohub,2013-04-26 08:37:00,
2013-04-26 03:42:00,40.3,32.4,30.28,South,180,7.0,9.0,73,0.00,,,0.00,meteohub,2013-04-26 08:42:00,
2013-04-26 03:47:00,40.1,31.8,30.28,SSE,166,4.0,10.0,72,0.00,,,0.00,meteohub,2013-04-26 08:47:00,
2013-04-26 03:52:00,39.7,31.8,30.28,South,174,7.0,10.0,73,0.00,,,0.00,meteohub,2013-04-26 08:52:00,
2013-04-26 03:57:00,39.7,31.8,30.28,South,181,6.0,10.0,73,0.00,,,0.00,meteohub,2013-04-26 08:57:00,
2013-04-26 04:02:00,39.9,32.0,30.28,South,179,6.0,10.0,73,0.00,,,0.00,meteohub,2013-04-26 09:02:00,
2013-04-26 04:07:00,39.9,31.6,30.28,South,184,7.0,11.0,72,0.00,,,0.00,meteohub,2013-04-26 09:07:00,
2013-04-26 04:12:00,40.1,31.5,30.27,South,175,6.0,11.0,71,0.00,,,0.00,meteohub,2013-04-26 09:12:00,
2013-04-26 04:17:00,40.1,31.5,30.27,SSE,163,6.0,12.0,71,0.00,,,0.00,meteohub,2013-04-26 09:17:00,
2013-04-26 04:22:00,40.1,31.5,30.27,South,174,9.0,12.0,71,0.00,,,0.00,meteohub,2013-04-26 09:22:00,
2013-04-26 04:27:00,40.3,31.3,30.27,South,188,12.0,12.0,70,0.00,,,0.00,meteohub,2013-04-26 09:27:00,
2013-04-26 04:32:00,40.3,31.6,30.28,South,184,7.0,12.0,71,0.00,,,0.00,meteohub,2013-04-26 09:32:00,
2013-04-26 04:37:00,40.3,31.6,30.28,South,175,9.0,13.0,71,0.00,,,0.00,meteohub,2013-04-26 09:37:00,
2013-04-26 04:42:00,40.3,31.3,30.27,South,191,5.0,13.0,70,0.00,,,0.00,meteohub,2013-04-26 09:42:00,
2013-04-26 04:47:00,40.5,31.5,30.27,South,180,5.0,13.0,70,0.00,,,0.00,meteohub,2013-04-26 09:47:00,
2013-04-26 04:52:00,40.6,31.3,30.27,South,180,10.0,12.0,69,0.00,,,0.00,meteohub,2013-04-26 09:52:00,
2013-04-26 04:57:00,40.6,30.9,30.27,South,186,9.0,12.0,68,0.00,,,0.00,meteohub,2013-04-26 09:57:00,
2013-04-26 05:02:00,40.8,31.1,30.27,SSE,166,7.0,13.0,68,0.00,,,0.00,meteohub,2013-04-26 10:02:00,
2013-04-26 05:07:00,41.2,30.7,30.28,South,181,9.0,13.0,66,0.00,,,0.00,meteohub,2013-04-26 10:07:00,
2013-04-26 05:12:00,41.4,30.9,30.28,South,170,8.0,13.0,66,0.00,,,0.00,meteohub,2013-04-26 10:12:00,
2013-04-26 05:17:00,41.4,30.9,30.28,South,182,7.0,11.0,66,0.00,,,0.00,meteohub,2013-04-26 10:17:00,
2013-04-26 05:22:00,41.4,30.9,30.28,South,182,8.0,11.0,66,0.00,,,0.00,meteohub,2013-04-26 10:22:00,
2013-04-26 05:27:00,41.4,30.6,30.28,South,169,4.0,11.0,65,0.00,,,0.00,meteohub,2013-04-26 10:27:00,
2013-04-26 05:32:00,41.5,30.7,30.28,SSE,159,3.0,9.0,65,0.00,,,0.00,meteohub,2013-04-26 10:32:00,
2013-04-26 05:37:00,41.5,31.1,30.28,SSE,161,2.0,8.0,66,0.00,,,0.00,meteohub,2013-04-26 10:37:00,
2013-04-26 05:42:00,41.5,30.7,30.28,South,173,5.0,8.0,65,0.00,,,0.00,meteohub,2013-04-26 10:42:00,
2013-04-26 05:48:00,41.5,30.7,30.28,South,173,3.0,7.0,65,0.00,,,0.00,meteohub,2013-04-26 10:48:00,
2013-04-26 05:53:00,41.5,30.7,30.29,SSE,165,4.0,6.0,65,0.00,,,0.00,meteohub,2013-04-26 10:53:00,
2013-04-26 05:58:00,41.5,31.5,30.28,SSE,153,2.0,9.0,67,0.00,,,0.00,meteohub,2013-04-26 10:58:00,
2013-04-26 06:03:00,41.4,31.3,30.27,SE,131,3.0,9.0,67,0.00,,,0.00,meteohub,2013-04-26 11:03:00,
2013-04-26 06:08:00,41.2,31.5,30.28,South,173,5.0,9.0,68,0.00,,,0.00,meteohub,2013-04-26 11:08:00,
2013-04-26 06:13:00,41.4,31.6,30.28,SSE,165,4.0,8.0,68,0.00,,,0.00,meteohub,2013-04-26 11:13:00,
2013-04-26 06:19:00,41.4,31.3,30.28,SSE,163,6.0,9.0,67,0.00,,,0.00,meteohub,2013-04-26 11:19:00,
2013-04-26 06:24:00,41.5,31.5,30.28,South,184,8.0,9.0,67,0.00,,,0.00,meteohub,2013-04-26 11:24:00,
2013-04-26 06:29:00,41.7,31.3,30.27,SE,143,8.0,10.0,66,0.00,,,0.00,meteohub,2013-04-26 11:29:00,
2013-04-26 06:34:00,42.1,32.0,30.27,SE,138,5.0,10.0,67,0.00,,,0.00,meteohub,2013-04-26 11:34:00,
2013-04-26 06:39:00,42.3,31.3,30.27,SE,145,10.0,12.0,65,0.00,,,0.00,meteohub,2013-04-26 11:39:00,
2013-04-26 06:44:00,42.4,31.5,30.29,South,177,6.0,12.0,65,0.00,,,0.00,meteohub,2013-04-26 11:44:00,
2013-04-26 06:50:00,42.6,31.3,30.28,SSE,161,3.0,12.0,64,0.00,,,0.00,meteohub,2013-04-26 11:50:00,
2013-04-26 06:55:00,42.6,31.6,30.29,South,170,8.0,12.0,65,0.00,,,0.00,meteohub,2013-04-26 11:55:00,
2013-04-26 07:00:00,42.6,31.3,30.29,South,173,4.0,11.0,64,0.00,,,0.00,meteohub,2013-04-26 12:00:00,
2013-04-26 07:05:00,42.6,31.3,30.29,South,187,8.0,12.0,64,0.00,,,0.00,meteohub,2013-04-26 12:05:00,
2013-04-26 07:10:00,42.8,31.5,30.29,South,177,6.0,13.0,64,0.00,,,0.00,meteohub,2013-04-26 12:10:00,
2013-04-26 07:15:00,43.0,31.6,30.29,South,170,6.0,13.0,64,0.00,,,0.00,meteohub,2013-04-26 12:15:00,
2013-04-26 07:21:00,43.2,31.5,30.29,South,178,6.0,13.0,63,0.00,,,0.00,meteohub,2013-04-26 12:21:00,
2013-04-26 07:26:00,43.3,31.6,30.29,South,170,7.0,13.0,63,0.00,,,0.00,meteohub,2013-04-26 12:26:00,
2013-04-26 07:31:00,43.5,31.8,30.29,SSE,163,6.0,14.0,63,0.00,,,0.00,meteohub,2013-04-26 12:31:00,
2013-04-26 07:36:00,43.9,32.2,30.28,South,169,3.0,14.0,63,0.00,,,0.00,meteohub,2013-04-26 12:36:00,
2013-04-26 07:41:00,44.1,32.7,30.28,SSE,164,6.0,13.0,64,0.00,,,0.00,meteohub,2013-04-26 12:41:00,
2013-04-26 07:46:00,44.4,32.5,30.27,SSE,160,9.0,14.0,63,0.00,,,0.00,meteohub,2013-04-26 12:46:00,
2013-04-26 07:52:00,45.1,32.9,30.27,South,184,10.0,15.0,62,0.00,,,0.00,meteohub,2013-04-26 12:52:00,
2013-04-26 07:57:00,45.7,33.4,30.27,South,179,8.0,15.0,62,0.00,,,0.00,meteohub,2013-04-26 12:57:00,
2013-04-26 08:02:00,46.0,33.3,30.27,South,178,7.0,15.0,61,0.00,,,0.00,meteohub,2013-04-26 13:02:00,
2013-04-26 08:07:00,46.8,34.0,30.27,South,170,14.0,16.0,61,0.00,,,0.00,meteohub,2013-04-26 13:07:00,
2013-04-26 08:12:00,46.8,33.3,30.26,SSE,153,12.0,17.0,59,0.00,,,0.00,meteohub,2013-04-26 13:12:00,
2013-04-26 08:17:00,46.8,33.6,30.26,SSE,163,10.0,20.0,60,0.00,,,0.00,meteohub,2013-04-26 13:17:00,
2013-04-26 08:22:00,47.3,34.2,30.26,South,189,13.0,20.0,60,0.00,,,0.00,meteohub,2013-04-26 13:22:00,
2013-04-26 08:27:00,47.8,34.2,30.26,SSE,167,10.0,20.0,59,0.00,,,0.00,meteohub,2013-04-26 13:27:00,
2013-04-26 08:32:00,48.4,34.7,30.26,SSE,168,13.0,19.0,59,0.00,,,0.00,meteohub,2013-04-26 13:32:00,
2013-04-26 08:37:00,48.6,34.5,30.25,South,180,15.0,20.0,58,0.00,,,0.00,meteohub,2013-04-26 13:37:00,
2013-04-26 08:42:00,48.7,35.4,30.25,South,171,12.0,22.0,60,0.00,,,0.00,meteohub,2013-04-26 13:42:00,
2013-04-26 08:47:00,49.3,35.6,30.25,South,175,15.0,22.0,59,0.00,,,0.00,meteohub,2013-04-26 13:47:00,
2013-04-26 08:52:00,49.5,35.8,30.25,SSW,195,17.0,22.0,59,0.00,,,0.00,meteohub,2013-04-26 13:52:00,
2013-04-26 08:57:00,49.6,36.0,30.25,South,184,13.0,23.0,59,0.00,,,0.00,meteohub,2013-04-26 13:57:00,
2013-04-26 09:02:00,49.8,35.6,30.25,South,186,18.0,23.0,58,0.00,,,0.00,meteohub,2013-04-26 14:02:00,
2013-04-26 09:07:00,50.0,36.3,30.25,South,171,16.0,23.0,59,0.00,,,0.00,meteohub,2013-04-26 14:07:00,
2013-04-26 09:12:00,50.4,37.0,30.25,South,180,15.0,24.0,60,0.00,,,0.00,meteohub,2013-04-26 14:12:00,
2013-04-26 09:17:00,50.2,36.3,30.24,South,182,11.0,24.0,59,0.00,,,0.00,meteohub,2013-04-26 14:17:00,
2013-04-26 09:22:00,50.2,36.9,30.24,South,173,13.0,24.0,60,0.00,,,0.00,meteohub,2013-04-26 14:22:00,
2013-04-26 09:27:00,50.5,37.6,30.24,SSW,196,16.0,22.0,61,0.00,,,0.00,meteohub,2013-04-26 14:27:00,
2013-04-26 09:32:00,51.6,37.8,30.24,SSW,198,17.0,23.0,59,0.00,,,0.00,meteohub,2013-04-26 14:32:00,
2013-04-26 09:37:00,52.2,37.8,30.24,South,176,10.0,23.0,58,0.00,,,0.00,meteohub,2013-04-26 14:37:00,
2013-04-26 09:42:00,51.8,37.6,30.24,SSE,162,18.0,22.0,58,0.00,,,0.00,meteohub,2013-04-26 14:42:00,
2013-04-26 09:47:00,52.2,38.3,30.24,South,180,22.0,23.0,59,0.00,,,0.00,meteohub,2013-04-26 14:47:00,
2013-04-26 09:52:00,52.7,37.9,30.24,SSE,155,13.0,24.0,57,0.00,,,0.00,meteohub,2013-04-26 14:52:00,
2013-04-26 09:57:00,52.5,38.1,30.24,South,182,16.0,24.0,58,0.00,,,0.00,meteohub,2013-04-26 14:57:00,
2013-04-26 10:02:00,53.4,39.0,30.24,South,169,7.0,24.0,58,0.00,,,0.00,meteohub,2013-04-26 15:02:00,
2013-04-26 10:07:00,54.0,39.6,30.24,South,182,16.0,21.0,58,0.00,,,0.00,meteohub,2013-04-26 15:07:00,
2013-04-26 10:12:00,54.1,39.7,30.24,SSW,194,10.0,22.0,58,0.00,,,0.00,meteohub,2013-04-26 15:12:00,
2013-04-26 10:17:00,54.1,39.2,30.24,SE,140,15.0,22.0,57,0.00,,,0.00,meteohub,2013-04-26 15:17:00,
2013-04-26 10:22:00,54.3,39.4,30.24,South,179,11.0,22.0,57,0.00,,,0.00,meteohub,2013-04-26 15:22:00,
2013-04-26 10:27:00,54.9,40.3,30.24,South,179,11.0,22.0,58,0.00,,,0.00,meteohub,2013-04-26 15:27:00,
2013-04-26 10:32:00,55.2,39.7,30.24,South,172,10.0,22.0,56,0.00,,,0.00,meteohub,2013-04-26 15:32:00,
2013-04-26 10:37:00,55.6,40.6,30.23,SSE,165,9.0,22.0,57,0.00,,,0.00,meteohub,2013-04-26 15:37:00,
2013-04-26 10:42:00,55.9,41.0,30.23,SSE,153,14.0,20.0,57,0.00,,,0.00,meteohub,2013-04-26 15:42:00,
2013-04-26 10:47:00,56.1,41.2,30.23,SSE,165,16.0,22.0,57,0.00,,,0.00,meteohub,2013-04-26 15:47:00,
2013-04-26 10:52:00,56.5,41.4,30.22,SSE,158,13.0,22.0,57,0.00,,,0.00,meteohub,2013-04-26 15:52:00,
2013-04-26 10:57:00,56.7,41.5,30.22,SSE,154,12.0,20.0,57,0.00,,,0.00,meteohub,2013-04-26 15:57:00,
2013-04-26 11:02:00,56.5,41.4,30.22,South,178,18.0,25.0,57,0.00,,,0.00,meteohub,2013-04-26 16:02:00,
2013-04-26 11:07:00,56.8,41.7,30.22,South,169,10.0,25.0,57,0.00,,,0.00,meteohub,2013-04-26 16:07:00,
2013-04-26 11:12:00,57.4,41.9,30.22,South,191,18.0,25.0,56,0.00,,,0.00,meteohub,2013-04-26 16:12:00,
2013-04-26 11:17:00,57.9,42.3,30.22,South,174,12.0,28.0,56,0.00,,,0.00,meteohub,2013-04-26 16:17:00,
2013-04-26 11:22:00,58.3,42.6,30.22,South,180,22.0,28.0,56,0.00,,,0.00,meteohub,2013-04-26 16:22:00,
2013-04-26 11:27:00,59.4,42.8,30.21,SSE,165,13.0,28.0,54,0.00,,,0.00,meteohub,2013-04-26 16:27:00,
2013-04-26 11:32:00,59.9,43.2,30.21,SSE,148,18.0,24.0,54,0.00,,,0.00,meteohub,2013-04-26 16:32:00,
2013-04-26 11:37:00,60.4,43.2,30.20,South,190,17.0,24.0,53,0.00,,,0.00,meteohub,2013-04-26 16:37:00,
2013-04-26 11:42:00,61.0,43.2,30.20,South,190,16.0,24.0,52,0.00,,,0.00,meteohub,2013-04-26 16:42:00,
2013-04-26 11:47:00,61.5,43.2,30.20,South,176,18.0,24.0,51,0.00,,,0.00,meteohub,2013-04-26 16:47:00,
2013-04-26 11:52:00,61.9,43.5,30.19,SSW,204,12.0,25.0,51,0.00,,,0.00,meteohub,2013-04-26 16:52:00,
2013-04-26 11:57:00,61.5,43.7,30.19,SSW,198,12.0,25.0,52,0.00,,,0.00,meteohub,2013-04-26 16:57:00,
2013-04-26 12:02:00,61.9,43.0,30.19,SSW,203,19.0,25.0,50,0.00,,,0.00,meteohub,2013-04-26 17:02:00,
2013-04-26 12:07:00,61.9,44.1,30.19,SSW,203,19.0,25.0,52,0.00,,,0.00,meteohub,2013-04-26 17:07:00,
2013-04-26 12:12:00,62.1,44.2,30.19,North,-999,-999.0,25.0,52,0.00,,,0.00,meteohub,2013-04-26 17:12:00,
2013-04-26 12:17:00,62.8,45.0,30.19,SSW,194,18.0,25.0,52,0.00,,,0.00,meteohub,2013-04-26 17:17:00,
2013-04-26 12:22:00,62.6,44.2,30.19,SSE,162,16.0,25.0,51,0.00,,,0.00,meteohub,2013-04-26 17:22:00,
2013-04-26 12:27:00,63.1,45.1,30.18,South,190,20.0,25.0,52,0.00,,,0.00,meteohub,2013-04-26 17:27:00,
2013-04-26 12:32:00,63.7,45.7,30.18,South,182,18.0,24.0,52,0.00,,,0.00,meteohub,2013-04-26 17:32:00,
2013-04-26 12:37:00,64.0,45.0,30.18,South,176,16.0,24.0,50,0.00,,,0.00,meteohub,2013-04-26 17:37:00,
2013-04-26 12:42:00,64.2,45.1,30.18,SSW,196,10.0,24.0,50,0.00,,,0.00,meteohub,2013-04-26 17:42:00,
2013-04-26 12:47:00,64.2,44.6,30.18,SSW,198,16.0,23.0,49,0.00,,,0.00,meteohub,2013-04-26 17:47:00,
2013-04-26 12:52:00,64.2,44.1,30.18,SSW,199,27.0,27.0,48,0.00,,,0.00,meteohub,2013-04-26 17:52:00,
2013-04-26 12:57:00,64.6,44.4,30.18,SSW,202,21.0,27.0,48,0.00,,,0.00,meteohub,2013-04-26 17:57:00,
2013-04-26 13:02:00,64.8,44.1,30.17,SSW,195,22.0,29.0,47,0.00,,,0.00,meteohub,2013-04-26 18:02:00,
2013-04-26 13:07:00,65.1,44.4,30.17,South,179,16.0,29.0,47,0.00,,,0.00,meteohub,2013-04-26 18:07:00,
2013-04-26 13:12:00,65.1,45.0,30.17,South,174,18.0,28.0,48,0.00,,,0.00,meteohub,2013-04-26 18:12:00,
2013-04-26 13:17:00,64.9,44.8,30.17,SSW,205,20.0,26.0,48,0.00,,,0.00,meteohub,2013-04-26 18:17:00,
2013-04-26 13:22:00,66.0,45.1,30.17,South,177,21.0,25.0,47,0.00,,,0.00,meteohub,2013-04-26 18:22:00,
2013-04-26 13:27:00,64.9,44.8,30.17,SSW,201,11.0,30.0,48,0.00,,,0.00,meteohub,2013-04-26 18:27:00,
2013-04-26 13:32:00,65.5,44.8,30.17,SSW,200,20.0,30.0,47,0.00,,,0.00,meteohub,2013-04-26 18:32:00,
2013-04-26 13:37:00,66.0,45.7,30.16,SW,215,18.0,30.0,48,0.00,,,0.00,meteohub,2013-04-26 18:37:00,
2013-04-26 13:42:00,65.7,44.2,30.17,SSW,198,19.0,28.0,46,0.00,,,0.00,meteohub,2013-04-26 18:42:00,
2013-04-26 13:47:00,65.7,45.5,30.16,SSW,198,18.0,28.0,48,0.00,,,0.00,meteohub,2013-04-26 18:47:00,
2013-04-26 13:52:00,65.8,45.7,30.16,South,190,11.0,28.0,48,0.00,,,0.00,meteohub,2013-04-26 18:52:00,
2013-04-26 13:57:00,65.8,44.4,30.17,SSW,193,22.0,27.0,46,0.00,,,0.00,meteohub,2013-04-26 18:57:00,
2013-04-26 14:02:00,66.0,45.1,30.16,SSW,200,21.0,30.0,47,0.00,,,0.00,meteohub,2013-04-26 19:02:00,
2013-04-26 14:07:00,66.2,44.8,30.16,SSW,195,22.0,30.0,46,0.00,,,0.00,meteohub,2013-04-26 19:07:00,
2013-04-26 14:12:00,66.0,46.8,30.16,South,176,18.0,30.0,50,0.00,,,0.00,meteohub,2013-04-26 19:12:00,
2013-04-26 14:17:00,66.4,46.6,30.16,SSW,209,18.0,27.0,49,0.00,,,0.00,meteohub,2013-04-26 19:17:00,
2013-04-26 14:22:00,66.7,45.3,30.16,South,186,20.0,28.0,46,0.00,,,0.00,meteohub,2013-04-26 19:22:00,
2013-04-26 14:27:00,66.6,46.8,30.16,SSW,202,15.0,28.0,49,0.00,,,0.00,meteohub,2013-04-26 19:27:00,
2013-04-26 14:32:00,66.0,45.7,30.15,SSW,198,15.0,28.0,48,0.00,,,0.00,meteohub,2013-04-26 19:32:00,
2013-04-26 14:37:00,66.2,44.8,30.15,SSW,196,21.0,27.0,46,0.00,,,0.00,meteohub,2013-04-26 19:37:00,
2013-04-26 14:42:00,65.7,45.0,30.15,SW,235,22.0,29.0,47,0.00,,,0.00,meteohub,2013-04-26 19:42:00,
2013-04-26 14:47:00,67.1,46.8,30.15,SW,219,17.0,29.0,48,0.00,,,0.00,meteohub,2013-04-26 19:47:00,
2013-04-26 14:52:00,66.2,45.9,30.14,SSW,213,25.0,29.0,48,0.00,,,0.00,meteohub,2013-04-26 19:52:00,
2013-04-26 14:57:00,66.9,47.1,30.14,SSW,213,10.0,26.0,49,0.00,,,0.00,meteohub,2013-04-26 19:57:00,
2013-04-26 15:02:00,66.0,45.1,30.14,SSW,205,16.0,26.0,47,0.00,,,0.00,meteohub,2013-04-26 20:02:00,
2013-04-26 15:07:00,66.0,46.4,30.14,South,184,22.0,27.0,49,0.00,,,0.00,meteohub,2013-04-26 20:07:00,
2013-04-26 15:12:00,66.9,46.0,30.14,South,189,20.0,27.0,47,0.00,,,0.00,meteohub,2013-04-26 20:12:00,
2013-04-26 15:17:00,67.3,46.4,30.13,SSW,210,27.0,30.0,47,0.00,,,0.00,meteohub,2013-04-26 20:17:00,
2013-04-26 15:22:00,67.5,46.6,30.14,SW,228,18.0,32.0,47,0.00,,,0.00,meteohub,2013-04-26 20:22:00,
2013-04-26 15:27:00,67.3,46.4,30.14,SSW,200,24.0,32.0,47,0.00,,,0.00,meteohub,2013-04-26 20:27:00,
2013-04-26 15:32:00,66.4,45.0,30.14,SSW,205,17.0,32.0,46,0.00,,,0.00,meteohub,2013-04-26 20:32:00,
2013-04-26 15:37:00,66.6,45.7,30.14,SW,225,25.0,29.0,47,0.00,,,0.00,meteohub,2013-04-26 20:37:00,
2013-04-26 15:42:00,67.3,46.4,30.13,SSW,211,25.0,29.0,47,0.00,,,0.00,meteohub,2013-04-26 20:42:00,
2013-04-26 15:47:00,66.9,46.0,30.14,SSW,204,17.0,29.0,47,0.00,,,0.00,meteohub,2013-04-26 20:47:00,
2013-04-26 15:52:00,66.6,45.7,30.14,SW,215,22.0,28.0,47,0.00,,,0.00,meteohub,2013-04-26 20:52:00,
2013-04-26 15:57:00,67.3,46.4,30.14,South,173,27.0,29.0,47,0.00,,,0.00,meteohub,2013-04-26 20:57:00,
2013-04-26 16:02:00,67.5,47.1,30.13,SSW,203,21.0,29.0,48,0.00,,,0.00,meteohub,2013-04-26 21:02:00,
2013-04-26 16:07:00,67.8,45.7,30.13,SSW,198,24.0,29.0,45,0.00,,,0.00,meteohub,2013-04-26 21:07:00,
2013-04-26 16:12:00,68.0,46.4,30.13,SW,220,20.0,30.0,46,0.00,,,0.00,meteohub,2013-04-26 21:12:00,
2013-04-26 16:17:00,68.4,46.8,30.13,SW,226,19.0,30.0,46,0.00,,,0.00,meteohub,2013-04-26 21:17:00,
2013-04-26 16:22:00,68.4,46.2,30.13,South,188,19.0,30.0,45,0.00,,,0.00,meteohub,2013-04-26 21:22:00,
2013-04-26 16:27:00,68.2,46.6,30.13,SSW,200,16.0,27.0,46,0.00,,,0.00,meteohub,2013-04-26 21:27:00,
2013-04-26 16:32:00,67.5,46.6,30.13,SSW,196,18.0,27.0,47,0.00,,,0.00,meteohub,2013-04-26 21:32:00,
2013-04-26 16:37:00,67.1,46.8,30.13,SSW,208,18.0,32.0,48,0.00,,,0.00,meteohub,2013-04-26 21:37:00,
2013-04-26 16:42:00,67.8,46.9,30.13,SSW,204,13.0,32.0,47,0.00,,,0.00,meteohub,2013-04-26 21:42:00,
2013-04-26 16:47:00,67.8,47.5,30.13,SW,215,11.0,32.0,48,0.00,,,0.00,meteohub,2013-04-26 21:47:00,
2013-04-26 16:52:00,67.8,47.5,30.12,SSW,200,16.0,26.0,48,0.00,,,0.00,meteohub,2013-04-26 21:52:00,
2013-04-26 16:57:00,68.2,47.1,30.12,SSW,209,21.0,25.0,47,0.00,,,0.00,meteohub,2013-04-26 21:57:00,
2013-04-26 17:02:00,68.2,46.6,30.12,SSW,205,18.0,26.0,46,0.00,,,0.00,meteohub,2013-04-26 22:02:00,
2013-04-26 17:07:00,68.2,47.7,30.12,South,187,15.0,27.0,48,0.00,,,0.00,meteohub,2013-04-26 22:07:00,
2013-04-26 17:12:00,67.6,48.4,30.12,South,186,16.0,27.0,50,0.00,,,0.00,meteohub,2013-04-26 22:12:00,
2013-04-26 17:17:00,68.2,47.1,30.12,WSW,246,18.0,27.0,47,0.00,,,0.00,meteohub,2013-04-26 22:17:00,
2013-04-26 17:22:00,67.8,47.5,30.12,SW,218,18.0,27.0,48,0.00,,,0.00,meteohub,2013-04-26 22:22:00,
2013-04-26 17:27:00,67.8,48.0,30.12,SW,216,17.0,27.0,49,0.00,,,0.00,meteohub,2013-04-26 22:27:00,
2013-04-26 17:32:00,67.6,47.3,30.12,SW,223,23.0,28.0,48,0.00,,,0.00,meteohub,2013-04-26 22:32:00,
2013-04-26 17:37:00,66.9,47.7,30.12,SSW,193,20.0,28.0,50,0.00,,,0.00,meteohub,2013-04-26 22:37:00,
2013-04-26 17:42:00,67.1,46.8,30.12,SSW,210,18.0,28.0,48,0.00,,,0.00,meteohub,2013-04-26 22:42:00,
2013-04-26 17:47:00,67.3,47.5,30.12,SSW,208,17.0,29.0,49,0.00,,,0.00,meteohub,2013-04-26 22:47:00,
2013-04-26 17:52:00,66.7,47.5,30.12,SSW,208,20.0,29.0,50,0.00,,,0.00,meteohub,2013-04-26 22:52:00,
2013-04-26 17:57:00,66.6,47.8,30.12,SSW,195,16.0,29.0,51,0.00,,,0.00,meteohub,2013-04-26 22:57:00,
2013-04-26 18:02:00,66.0,47.8,30.12,South,185,17.0,28.0,52,0.00,,,0.00,meteohub,2013-04-26 23:02:00,
2013-04-26 18:07:00,65.7,47.5,30.12,SSW,194,17.0,28.0,52,0.00,,,0.00,meteohub,2013-04-26 23:07:00,
2013-04-26 18:12:00,65.3,47.7,30.12,South,189,12.0,27.0,53,0.00,,,0.00,meteohub,2013-04-26 23:12:00,
2013-04-26 18:17:00,65.7,48.6,30.13,SSW,212,9.0,23.0,54,0.00,,,0.00,meteohub,2013-04-26 23:17:00,
2013-04-26 18:22:00,66.0,47.3,30.12,SSW,211,20.0,21.0,51,0.00,,,0.00,meteohub,2013-04-26 23:22:00,
2013-04-26 18:27:00,66.0,46.8,30.12,SW,215,19.0,22.0,50,0.00,,,0.00,meteohub,2013-04-26 23:27:00,
2013-04-26 18:32:00,65.8,47.1,30.12,SSW,211,13.0,26.0,51,0.00,,,0.00,meteohub,2013-04-26 23:32:00,
2013-04-26 18:37:00,65.8,47.1,30.12,South,189,12.0,26.0,51,0.00,,,0.00,meteohub,2013-04-26 23:37:00,
2013-04-26 18:42:00,65.5,47.8,30.13,SSW,198,11.0,26.0,53,0.00,,,0.00,meteohub,2013-04-26 23:42:00,
2013-04-26 18:47:00,65.3,47.3,30.13,SW,215,14.0,24.0,52,0.00,,,0.00,meteohub,2013-04-26 23:47:00,
2013-04-26 18:52:00,64.8,47.7,30.13,SSW,201,12.0,24.0,54,0.00,,,0.00,meteohub,2013-04-26 23:52:00,
2013-04-26 19:05:00,64.2,46.2,30.14,SSW,196,15.0,27.0,52,0.00,,,0.00,meteohub,2013-04-27 00:05:00,
2013-04-26 19:10:00,63.7,46.2,30.14,SSW,209,13.0,27.0,53,0.00,,,0.00,meteohub,2013-04-27 00:10:00,
2013-04-26 19:16:00,63.0,46.6,30.14,SSW,204,12.0,27.0,55,0.00,,,0.00,meteohub,2013-04-27 00:16:00,
2013-04-26 19:21:00,63.0,46.0,30.15,SSW,212,15.0,21.0,54,0.00,,,0.00,meteohub,2013-04-27 00:21:00,
2013-04-26 19:26:00,62.6,46.2,30.15,SSW,204,17.0,22.0,55,0.00,,,0.00,meteohub,2013-04-27 00:26:00,
2013-04-26 19:31:00,62.2,45.9,30.15,SSW,192,15.0,23.0,55,0.00,,,0.00,meteohub,2013-04-27 00:31:00,
2013-04-26 19:36:00,61.9,46.4,30.16,South,191,21.0,23.0,57,0.00,,,0.00,meteohub,2013-04-27 00:36:00,
2013-04-26 19:42:00,61.5,46.6,30.16,SSW,197,18.0,23.0,58,0.00,,,0.00,meteohub,2013-04-27 00:42:00,
2013-04-26 19:47:00,61.2,46.2,30.16,South,190,16.0,23.0,58,0.00,,,0.00,meteohub,2013-04-27 00:47:00,
2013-04-26 19:52:00,61.2,46.2,30.16,SSW,201,16.0,24.0,58,0.00,,,0.00,meteohub,2013-04-27 00:52:00,
2013-04-26 19:57:00,60.6,46.2,30.17,SSW,195,11.0,24.0,59,0.00,,,0.00,meteohub,2013-04-27 00:57:00,
2013-04-26 20:02:00,60.4,46.4,30.17,SSW,196,7.0,24.0,60,0.00,,,0.00,meteohub,2013-04-27 01:02:00,
2013-04-26 20:07:00,60.1,46.6,30.17,South,178,9.0,20.0,61,0.00,,,0.00,meteohub,2013-04-27 01:07:00,
2013-04-26 20:12:00,59.7,46.8,30.17,SSW,193,10.0,20.0,62,0.00,,,0.00,meteohub,2013-04-27 01:12:00,
2013-04-26 20:17:00,59.5,46.6,30.17,South,187,16.0,19.0,62,0.00,,,0.00,meteohub,2013-04-27 01:17:00,
2013-04-26 20:22:00,59.4,46.4,30.17,South,186,15.0,20.0,62,0.00,,,0.00,meteohub,2013-04-27 01:22:00,
2013-04-26 20:27:00,59.4,46.8,30.18,South,189,16.0,20.0,63,0.00,,,0.00,meteohub,2013-04-27 01:27:00,
2013-04-26 20:32:00,59.0,46.4,30.18,SSW,192,13.0,20.0,63,0.00,,,0.00,meteohub,2013-04-27 01:32:00,
2013-04-26 20:37:00,59.0,46.4,30.19,SSW,194,10.0,20.0,63,0.00,,,0.00,meteohub,2013-04-27 01:37:00,
2013-04-26 20:42:00,58.8,46.2,30.19,South,189,11.0,19.0,63,0.00,,,0.00,meteohub,2013-04-27 01:42:00,
2013-04-26 20:47:00,58.6,46.6,30.19,South,189,14.0,19.0,64,0.00,,,0.00,meteohub,2013-04-27 01:47:00,
2013-04-26 20:52:00,58.3,46.9,30.19,South,184,14.0,19.0,66,0.00,,,0.00,meteohub,2013-04-27 01:52:00,
2013-04-26 20:57:00,58.3,46.9,30.19,South,185,12.0,19.0,66,0.00,,,0.00,meteohub,2013-04-27 01:57:00,
2013-04-26 21:02:00,58.1,46.8,30.19,South,180,13.0,19.0,66,0.00,,,0.00,meteohub,2013-04-27 02:02:00,
2013-04-26 21:07:00,58.3,46.9,30.19,South,185,12.0,21.0,66,0.00,,,0.00,meteohub,2013-04-27 02:07:00,
2013-04-26 21:12:00,57.7,47.3,30.20,SSE,162,12.0,21.0,68,0.00,,,0.00,meteohub,2013-04-27 02:12:00,
2013-04-26 21:17:00,57.6,47.5,30.20,South,178,9.0,19.0,69,0.00,,,0.00,meteohub,2013-04-27 02:17:00,
2013-04-26 21:22:00,57.0,47.3,30.20,South,185,10.0,18.0,70,0.00,,,0.00,meteohub,2013-04-27 02:22:00,
2013-04-26 21:27:00,56.8,47.1,30.20,SSE,163,10.0,17.0,70,0.00,,,0.00,meteohub,2013-04-27 02:27:00,
2013-04-26 21:32:00,56.5,47.1,30.20,SSW,196,15.0,17.0,71,0.00,,,0.00,meteohub,2013-04-27 02:32:00,
2013-04-26 21:37:00,56.3,47.5,30.20,SSW,195,11.0,17.0,72,0.00,,,0.00,meteohub,2013-04-27 02:37:00,
2013-04-26 21:42:00,56.1,47.3,30.21,South,175,8.0,16.0,72,0.00,,,0.00,meteohub,2013-04-27 02:42:00,
2013-04-26 21:47:00,56.5,47.5,30.21,South,180,11.0,16.0,72,0.00,,,0.00,meteohub,2013-04-27 02:47:00,
2013-04-26 21:52:00,56.7,46.9,30.21,SSW,196,11.0,17.0,70,0.00,,,0.00,meteohub,2013-04-27 02:52:00,
2013-04-26 21:57:00,56.8,47.1,30.21,South,176,13.0,18.0,70,0.00,,,0.00,meteohub,2013-04-27 02:57:00,
2013-04-26 22:02:00,56.7,46.9,30.21,SSW,196,10.0,19.0,70,0.00,,,0.00,meteohub,2013-04-27 03:02:00,
2013-04-26 22:07:00,56.5,47.1,30.21,SSW,198,13.0,22.0,71,0.00,,,0.00,meteohub,2013-04-27 03:07:00,
2013-04-26 22:12:00,56.5,47.1,30.21,SSW,206,11.0,22.0,71,0.00,,,0.00,meteohub,2013-04-27 03:12:00,
2013-04-26 22:17:00,55.9,47.1,30.21,SSW,193,13.0,18.0,72,0.00,,,0.00,meteohub,2013-04-27 03:17:00,
2013-04-26 22:22:00,55.9,47.1,30.21,SSW,194,13.0,18.0,72,0.00,,,0.00,meteohub,2013-04-27 03:22:00,
2013-04-26 22:27:00,55.8,46.9,30.21,SSW,209,11.0,17.0,72,0.00,,,0.00,meteohub,2013-04-27 03:27:00,
2013-04-26 22:32:00,55.6,47.1,30.21,SSW,205,9.0,17.0,73,0.00,,,0.00,meteohub,2013-04-27 03:32:00,
2013-04-26 22:37:00,55.0,46.9,30.21,SSW,200,10.0,17.0,74,0.00,,,0.00,meteohub,2013-04-27 03:37:00,
2013-04-26 22:42:00,55.0,46.9,30.21,SSW,204,14.0,16.0,74,0.00,,,0.00,meteohub,2013-04-27 03:42:00,
2013-04-26 22:47:00,54.9,46.8,30.21,South,188,10.0,16.0,74,0.00,,,0.00,meteohub,2013-04-27 03:47:00,
2013-04-26 22:52:00,54.9,46.8,30.21,SSW,200,10.0,17.0,74,0.00,,,0.00,meteohub,2013-04-27 03:52:00,
2013-04-26 22:57:00,54.5,46.8,30.21,SSW,194,13.0,17.0,75,0.00,,,0.00,meteohub,2013-04-27 03:57:00,
2013-04-26 23:01:00,54.3,46.6,30.21,SSW,200,9.0,17.0,75,0.00,,,0.00,meteohub,2013-04-27 04:01:00,
2013-04-26 23:02:00,54.3,46.6,30.21,South,188,10.0,17.0,75,0.00,,,0.00,meteohub,2013-04-27 04:02:00,
2013-04-26 23:03:00,54.3,46.6,30.21,South,190,16.0,17.0,75,0.00,,,0.00,meteohub,2013-04-27 04:03:00,
2013-04-26 23:04:00,54.5,46.8,30.21,SSW,202,10.0,17.0,75,0.00,,,0.00,meteohub,2013-04-27 04:04:00,
2013-04-26 23:09:00,54.3,46.6,30.21,SSW,193,10.0,18.0,75,0.00,,,0.00,meteohub,2013-04-27 04:09:00,
2013-04-26 23:15:00,54.1,46.8,30.21,SSW,195,13.0,18.0,76,0.00,,,0.00,meteohub,2013-04-27 04:15:00,
2013-04-26 23:20:00,54.0,46.6,30.21,SSW,196,13.0,18.0,76,0.00,,,0.00,meteohub,2013-04-27 04:20:00,
2013-04-26 23:25:00,53.8,46.4,30.21,South,190,12.0,15.0,76,0.00,,,0.00,meteohub,2013-04-27 04:25:00,
2013-04-26 23:30:00,53.8,46.8,30.20,South,179,13.0,17.0,77,0.00,,,0.00,meteohub,2013-04-27 04:30:00,
2013-04-26 23:35:00,54.0,46.6,30.20,South,186,10.0,16.0,76,0.00,,,0.00,meteohub,2013-04-27 04:35:00,
2013-04-26 23:41:00,54.0,46.9,30.20,SSW,196,9.0,16.0,77,0.00,,,0.00,meteohub,2013-04-27 04:41:00,
2013-04-26 23:46:00,54.0,46.9,30.20,South,190,11.0,17.0,77,0.00,,,0.00,meteohub,2013-04-27 04:46:00,
2013-04-26 23:51:00,53.8,46.8,30.20,South,188,11.0,18.0,77,0.00,,,0.00,meteohub,2013-04-27 04:51:00,
2013-04-26 23:56:00,53.8,46.8,30.20,SSW,202,13.0,18.0,77,0.00,,,0.00,meteohub,2013-04-27 04:56:00,